| time (UTC) | temp C | wind direction | speed KPH | gust KPH | rain 1hr cm | rain 24hr cm | rain mn cm | humidity % | barometer mb |
| 20260507164539 | 12 | 207 | 8.0 | 19.3 | 0.00 | 0.00 | 0.00 | 67 | 1011.4 |
| 20260507163034 | 11 | 197 | 6.4 | 17.7 | 0.00 | 0.00 | 0.00 | 69 | 1011.6 |
| 20260507161532 | 11 | 200 | 8.0 | 14.5 | 0.00 | 0.00 | 0.00 | 67 | 1011.7 |
| 20260507160030 | 11 | 185 | 8.0 | 22.5 | 0.00 | 0.00 | 0.00 | 65 | 1011.9 |
| 20260507154533 | 11 | 234 | 6.4 | 16.1 | 0.00 | 0.00 | 0.00 | 64 | 1012.0 |
| 20260507153027 | 11 | 181 | 6.4 | 16.1 | 0.00 | 0.00 | 0.00 | 64 | 1012.1 |
| 20260507151524 | 11 | 309 | 1.6 | 9.7 | 0.00 | 0.00 | 0.00 | 64 | 1012.2 |
| 20260507150021 | 11 | 298 | 1.6 | 11.3 | 0.00 | 0.00 | 0.00 | 61 | 1012.2 |
| 20260507144518 | 11 | 230 | 1.6 | 9.7 | 0.00 | 0.03 | 0.00 | 64 | 1012.2 |
| 20260507143013 | 11 | 203 | 4.8 | 12.9 | 0.00 | 0.03 | 0.00 | 61 | 1012.3 |
| 20260507141509 | 11 | 157 | 3.2 | 12.9 | 0.00 | 0.03 | 0.00 | 66 | 1012.4 |
| 20260507140007 | 10 | 117 | 1.6 | 8.0 | 0.00 | 0.03 | 0.00 | 66 | 1012.4 |
| 20260507134502 | 10 | 88 | 3.2 | 8.0 | 0.00 | 0.05 | 0.00 | 65 | 1012.5 |
| 20260507133057 | 9 | 63 | 0.0 | 4.8 | 0.00 | 0.05 | 0.00 | 65 | 1012.6 |
| 20260507131552 | 8 | 40 | 3.2 | 8.0 | 0.00 | 0.05 | 0.00 | 71 | 1012.7 |
| 20260507130047 | 7 | 91 | 1.6 | 6.4 | 0.00 | 0.05 | 0.00 | 77 | 1012.7 |
| 20260507124543 | 6 | 30 | 1.6 | 8.0 | 0.00 | 0.08 | 0.00 | 84 | 1012.7 |
| 20260507123040 | 5 | 67 | 3.2 | 9.7 | 0.00 | 0.08 | 0.00 | 90 | 1012.7 |
| 20260507121539 | 5 | 68 | 0.0 | 4.8 | 0.00 | 0.08 | 0.00 | 96 | 1012.7 |
| 20260507120038 | 5 | 76 | 0.0 | 4.8 | 0.00 | 0.08 | 0.00 | 97 | 1012.7 |
| 20260507114536 | 4 | 40 | 0.0 | 6.4 | 0.00 | 0.13 | 0.00 | 97 | 1012.8 |
| 20260507113035 | 4 | 329 | 1.6 | 6.4 | 0.00 | 0.13 | 0.00 | 97 | 1012.8 |
| 20260507111541 | 4 | 304 | 1.6 | 6.4 | 0.00 | 0.13 | 0.00 | 97 | 1012.9 |
| 20260507110032 | 3 | 287 | 0.0 | 4.8 | 0.00 | 0.13 | 0.00 | 97 | 1012.8 |
| 20260507104531 | 3 | 200 | 0.0 | 0.0 | 0.00 | 0.18 | 0.00 | 96 | 1012.5 |
| 20260507103035 | 3 | 200 | 0.0 | 0.0 | 0.00 | 0.18 | 0.00 | 96 | 1012.1 |
| 20260507101532 | 3 | 200 | 0.0 | 0.0 | 0.00 | 0.18 | 0.00 | 96 | 1011.9 |
| 20260507100034 | 2 | 200 | 0.0 | 0.0 | 0.00 | 0.18 | 0.00 | 96 | 1011.9 |
| 20260507094538 | 2 | 200 | 0.0 | 0.0 | 0.00 | 0.30 | 0.00 | 96 | 1012.0 |
| 20260507093032 | 2 | 200 | 0.0 | 0.0 | 0.00 | 0.30 | 0.00 | 95 | 1012.0 |
| 20260507091528 | 1 | 200 | 0.0 | 0.0 | 0.00 | 0.30 | 0.00 | 94 | 1012.1 |
| 20260507090022 | 2 | 200 | 0.0 | 0.0 | 0.00 | 0.30 | 0.00 | 94 | 1012.0 |
| 20260507084524 | 2 | 200 | 0.0 | 0.0 | 0.00 | 0.46 | 0.00 | 94 | 1011.9 |
| 20260507083017 | 2 | 200 | 0.0 | 0.0 | 0.00 | 0.46 | 0.00 | 94 | 1011.9 |
| 20260507081522 | 2 | 200 | 0.0 | 0.0 | 0.00 | 0.46 | 0.00 | 94 | 1012.0 |
| 20260507080013 | 2 | 200 | 0.0 | 0.0 | 0.00 | 0.46 | 0.00 | 93 | 1012.1 |
| 20260507074512 | 2 | 200 | 0.0 | 0.0 | 0.00 | 0.56 | 0.00 | 93 | 1012.1 |
| 20260507073010 | 3 | 200 | 0.0 | 0.0 | 0.00 | 0.56 | 0.00 | 93 | 1012.0 |
| 20260507071508 | 3 | 200 | 0.0 | 0.0 | 0.00 | 0.56 | 0.00 | 93 | 1012.1 |
| 20260507070010 | 3 | 200 | 0.0 | 0.0 | 0.00 | 0.56 | 0.00 | 93 | 1012.0 |
| 20260507064502 | 4 | 200 | 0.0 | 0.0 | 0.00 | 0.66 | 0.00 | 93 | 1011.9 |
| 20260507063101 | 4 | 200 | 0.0 | 0.0 | 0.00 | 0.66 | 0.00 | 94 | 1012.3 |
| 20260507061557 | 5 | 200 | 0.0 | 0.0 | 0.00 | 0.66 | 0.00 | 94 | 1012.4 |
| 20260507060103 | 5 | 200 | 0.0 | 0.0 | 0.00 | 0.66 | 0.00 | 94 | 1012.6 |
| 20260507054556 | 5 | 200 | 0.0 | 0.0 | 0.00 | 0.79 | 0.00 | 94 | 1012.6 |
| 20260507053056 | 5 | 200 | 0.0 | 0.0 | 0.00 | 0.79 | 0.00 | 93 | 1012.6 |
| 20260507051551 | 5 | 200 | 0.0 | 0.0 | 0.00 | 0.79 | 0.00 | 93 | 1012.7 |
| 20260507050050 | 5 | 200 | 0.0 | 0.0 | 0.00 | 0.79 | 0.00 | 93 | 1012.8 |
| 20260507044557 | 6 | 200 | 0.0 | 0.0 | 0.00 | 0.94 | 0.00 | 93 | 1012.8 |
| 20260507043046 | 6 | 200 | 0.0 | 0.0 | 0.00 | 0.94 | 0.00 | 93 | 1012.9 |
| 20260507041544 | 6 | 200 | 0.0 | 1.6 | 0.00 | 0.94 | 0.00 | 93 | 1013.0 |
| 20260507040043 | 6 | 200 | 0.0 | 0.0 | 0.00 | 0.94 | 0.00 | 93 | 1012.9 |
| 20260507034544 | 6 | 200 | 0.0 | 3.2 | 0.00 | 0.99 | 0.94 | 93 | 1012.8 |
| 20260507033043 | 6 | 200 | 0.0 | 1.6 | 0.00 | 0.99 | 0.94 | 93 | 1012.8 |
| 20260507031541 | 6 | 200 | 0.0 | 1.6 | 0.00 | 0.99 | 0.94 | 93 | 1012.8 |
| 20260507030040 | 6 | 200 | 0.0 | 0.0 | 0.00 | 0.99 | 0.94 | 93 | 1012.8 |
| 20260507024544 | 6 | 200 | 0.0 | 3.2 | 0.00 | 1.12 | 0.94 | 93 | 1012.8 |
| 20260507023039 | 6 | 200 | 0.0 | 4.8 | 0.00 | 1.12 | 0.94 | 93 | 1012.7 |
| 20260507021538 | 6 | 200 | 0.0 | 0.0 | 0.00 | 1.12 | 0.94 | 93 | 1012.9 |
| 20260507020046 | 6 | 200 | 0.0 | 3.2 | 0.00 | 1.12 | 0.94 | 93 | 1012.8 |
| 20260507014538 | 6 | 200 | 0.0 | 4.8 | 0.00 | 1.19 | 0.94 | 92 | 1013.0 |
| 20260507013040 | 6 | 169 | 1.6 | 8.0 | 0.00 | 1.19 | 0.94 | 92 | 1013.1 |
| 20260507011536 | 6 | 13 | 0.0 | 0.0 | 0.00 | 1.19 | 0.94 | 91 | 1012.8 |
| 20260507010039 | 6 | 13 | 0.0 | 0.0 | 0.00 | 1.19 | 0.94 | 90 | 1012.7 |
| 20260507004534 | 6 | 13 | 0.0 | 0.0 | 0.00 | 1.45 | 0.94 | 90 | 1012.7 |
| 20260507003032 | 6 | 13 | 0.0 | 0.0 | 0.00 | 1.45 | 0.94 | 90 | 1012.4 |
| 20260507001535 | 6 | 13 | 0.0 | 0.0 | 0.00 | 1.45 | 0.94 | 90 | 1012.2 |
| 20260507000026 | 6 | 13 | 0.0 | 0.0 | 0.00 | 1.45 | 0.94 | 90 | 1012.1 |
| 20260506234526 | 6 | 13 | 0.0 | 0.0 | 0.00 | 1.78 | 0.94 | 90 | 1012.0 |
| 20260506233025 | 7 | 13 | 0.0 | 0.0 | 0.00 | 1.78 | 0.94 | 90 | 1011.9 |
| 20260506231527 | 7 | 13 | 0.0 | 3.2 | 0.00 | 1.78 | 0.94 | 90 | 1011.9 |
| 20260506230022 | 7 | 13 | 0.0 | 3.2 | 0.00 | 1.78 | 0.94 | 90 | 1011.7 |
| 20260506224521 | 6 | 317 | 0.0 | 6.4 | 0.00 | 2.01 | 0.94 | 91 | 1011.5 |
| 20260506223019 | 6 | 297 | 3.2 | 9.7 | 0.00 | 2.01 | 0.94 | 91 | 1011.4 |
| 20260506221516 | 6 | 338 | 3.2 | 14.5 | 0.00 | 2.01 | 0.94 | 91 | 1011.0 |
| 20260506220014 | 6 | 298 | 4.8 | 14.5 | 0.00 | 2.01 | 0.94 | 91 | 1010.8 |
| 20260506214513 | 6 | 345 | 6.4 | 20.9 | 0.00 | 2.31 | 0.94 | 92 | 1010.8 |
| 20260506213013 | 6 | 304 | 3.2 | 19.3 | 0.00 | 2.31 | 0.94 | 92 | 1010.7 |
| 20260506211510 | 6 | 323 | 6.4 | 19.3 | 0.00 | 2.31 | 0.94 | 92 | 1010.6 |
| 20260506210010 | 6 | 308 | 4.8 | 20.9 | 0.00 | 2.31 | 0.94 | 91 | 1010.4 |
| 20260506204504 | 6 | 300 | 6.4 | 20.9 | 0.00 | 2.44 | 0.94 | 88 | 1010.4 |
| 20260506203001 | 8 | 271 | 3.2 | 14.5 | 0.00 | 2.44 | 0.94 | 85 | 1010.3 |
| 20260506201600 | 10 | 286 | 6.4 | 20.9 | 0.00 | 2.44 | 0.94 | 84 | 1010.3 |
| 20260506200057 | 10 | 228 | 6.4 | 19.3 | 0.00 | 2.44 | 0.94 | 83 | 1010.0 |
| 20260506194605 | 11 | 244 | 6.4 | 17.7 | 0.00 | 2.44 | 0.94 | 81 | 1009.7 |
| 20260506193058 | 12 | 211 | 4.8 | 19.3 | 0.00 | 2.44 | 0.94 | 79 | 1009.6 |
| 20260506191553 | 12 | 163 | 8.0 | 27.4 | 0.00 | 2.44 | 0.94 | 79 | 1009.5 |
| 20260506190048 | 11 | 192 | 6.4 | 19.3 | 0.00 | 2.44 | 0.94 | 83 | 1009.4 |
| 20260506184545 | 10 | 114 | 4.8 | 12.9 | 0.00 | 2.44 | 0.94 | 86 | 1009.3 |
| 20260506183044 | 10 | 182 | 3.2 | 11.3 | 0.00 | 2.44 | 0.94 | 84 | 1009.3 |
| 20260506181546 | 10 | 243 | 3.2 | 9.7 | 0.00 | 2.44 | 0.94 | 87 | 1009.2 |
| 20260506180047 | 10 | 202 | 1.6 | 11.3 | 0.00 | 2.44 | 0.94 | 88 | 1009.3 |
| 20260506174540 | 10 | 195 | 1.6 | 8.0 | 0.00 | 2.44 | 0.94 | 87 | 1009.3 |
| 20260506173041 | 10 | 192 | 1.6 | 8.0 | 0.00 | 2.44 | 0.94 | 87 | 1009.2 |
| 20260506171549 | 10 | 63 | 1.6 | 8.0 | 0.00 | 2.44 | 0.94 | 87 | 1009.3 |
| 20260506170036 | 10 | 62 | 1.6 | 4.8 | 0.00 | 2.44 | 0.94 | 87 | 1009.3 |